Content
SEND FEEDBACK

Daily
Averages
Monthly
Summary
Canada

RICHMOND NATURE PARK, BRITISH COLUMBIA


Home > North America > Canada > British Columbia
Elevation: 10 feet     Latitude: 49 10N     Longitude: 123 05W

WEATHER
 
SELECT A DAY
Number of Records: 194,204;   Date Range: 1/1/95 - 7/11/14
 
SHARE

PRINT THIS DATA

[ ← Previous Day ]
WEATHER ALMANAC - OCTOBER 18, 2013
[ Next Day → ]
[ °C ]   °F
Weather ElementAverageHighLow
Temperature43.6 °F48.2 °F (2:18 pm) (12:46 pm)
Dewpoint43.5 °F48.2 °F (4:00 pm) (7:00 pm)
Humidity99.4 %100 % (1:00 am)93 % (2:18 pm)
Barometer28.76 in30.28 in (3:00 am) (7:00 pm)
Wind Speed2.5 mph6.9 mph (1:09 pm)
Weather ElementAverage
Visibility0.5 mi
Wind DirectionS (174.5 °)

Weather ElementTotal
Precipitation---
Heating Degree Days40.9 (Base 65)
Averaged from 41 records on October 18, 2013
WEATHER CONDITIONS BREAKOUT
WIND DIRECTION BREAKOUT
WEATHER BY HOUR - OCTOBER 18, 2013
[ °C ]   °F
Local TimeTemperatureDewpointHumidityBarometerVisibilityWind DirectionWind SpeedGust SpeedPrecipitationEventsConditions
1:00 AM46.4 °F46.4 °F100 %30.27 in0.1 miVariable2.3 mphFogFog
2:00 AM44.6 °F44.6 °F100 %30.27 in0.1 miCalmFogFog
3:00 AM46.4 °F46.4 °F100 %30.28 in0.1 miSSW (210°)2.3 mphFogFog
4:00 AM44.6 °F44.6 °F100 %30.28 in0.1 miCalmFogFog
5:00 AM44.6 °F44.6 °F100 %30.27 in0.1 miCalmFogFog
5:00 AM44.0 °F44.0 °F100 %30.27 in0.0 miCalmFogHeavy Fog
6:00 AM42.8 °F42.8 °F100 %30.27 in0.0 miCalmFogFog
7:00 AM42.8 °F42.8 °F100 %30.27 in0.1 miCalmFogFog
7:47 AM42.8 °F42.8 °F100 %30.26 in0.0 miCalmFogFog
8:00 AM42.8 °F42.8 °F100 %30.27 in0.0 miCalmFogFog
9:00 AM44.6 °F44.6 °F100 %30.27 in0.0 miCalmFogFog
10:00 AM44.6 °F44.6 °F100 %30.28 in0.0 miCalmFogFog
11:00 AM45.0 °F44.0 °F97 %30.28 in0.0 miCalmFogHeavy Fog
11:00 AM44.6 °F44.6 °F100 %30.28 in0.0 miCalmFogFog
11:55 AM46.4 °F46.4 °F100 %30.27 in0.1 miNW (320°)3.5 mphFogFog
12:00 PM46.4 °F46.4 °F100 %30.27 in0.1 miNW (320°)3.5 mphFogFog
12:02 PM46.4 °F46.4 °F100 %30.27 in0.5 miWNW (300°)3.5 mphFogFog
12:14 PM46.4 °F46.4 °F100 %30.27 in2.0 miWNW (300°)3.5 mphOvercast
12:46 PM0.0 °F0.0 °F2.5 miNW (320°)3.5 mphOvercast
1:00 PM46.4 °F46.4 °F100 %30.26 in2.5 miWest (280°)4.6 mphOvercast
1:09 PM46.4 °F46.4 °F100 %30.26 in4.0 miWest (280°)6.9 mphOvercast
1:37 PM46.4 °F46.4 °F100 %30.25 in3.0 miWSW (240°)4.6 mphOvercast
1:57 PM46.4 °F46.4 °F100 %30.25 in1.0 miWest (260°)5.8 mphOvercast
2:00 PM46.4 °F46.4 °F100 %30.25 in1.0 miWSW (240°)4.6 mphOvercast
2:18 PM48.2 °F46.4 °F93 %30.24 in0.5 miCalmFogFog
2:28 PM0.0 °F0.0 °F1.0 miNW (310°)3.5 mphOvercast
3:00 PM48.2 °F46.4 °F93 %30.22 in1.0 miWNW (300°)5.8 mphOvercast
3:42 PM48.2 °F46.4 °F93 %30.22 in0.5 miWNW (300°)4.6 mphFogFog
4:00 PM48.2 °F48.2 °F100 %30.21 in0.5 miWest (270°)4.6 mphFogFog
5:00 PM47.0 °F47.0 °F100 %30.20 in0.0 miCalmFogHeavy Fog
5:00 PM46.4 °F46.4 °F100 %30.19 in0.4 miCalmFogFog
5:30 PM46.4 °F46.4 °F100 %30.19 in0.1 miNW (320°)3.5 mphFogFog
6:00 PM46.4 °F46.4 °F100 %30.19 in0.1 miNW (310°)4.6 mphFogFog
7:00 PM46.4 °F46.4 °F100 %30.18 in0.1 miWNW (290°)2.3 mphFogFog
8:00 PM46.4 °F46.4 °F100 %30.19 in0.1 miNNW (330°)3.5 mphFogFog
8:41 PM46.4 °F46.4 °F100 %30.19 in0.2 miWNW (300°)4.6 mphFogFog
9:00 PM46.4 °F46.4 °F100 %30.18 in0.2 miWest (270°)4.6 mphFogFog
10:00 PM46.4 °F46.4 °F100 %30.19 in0.2 miWest (270°)4.6 mphFogFog
10:41 PM46.4 °F46.4 °F100 %30.19 in0.1 miWest (270°)2.3 mphFogFog
11:00 PM46.0 °F46.0 °F100 %30.19 in0.0 miNorth (10°)2.3 mphFogHeavy Fog
11:00 PM46.4 °F46.4 °F100 %30.19 in0.1 miNorth (10°)2.3 mphFogFog
Hourly data recorded from CYVR, located miles away from Richmond Nature Park, British Columbia







STORIES FROM OUR PARTNERS